Terminal Aerodrome Forecast
Issued by NWS

Home | Current Version | Previous Version | Text Only | Print | Product List | Glossary On
Versions: 1 2 3 4 5 6 7 8 9 10 11 12 13 14 15
000
FTUS45 KRIW 271133
TAFBPI
TAF
KBPI 271133Z 2712/2812 28007KT 2SM -SHSN VCFG SCT005 BKN030
      TEMPO 2712/2714 1/2SM FZFG
     FM271400 32014G22KT 2SM -SHSN OVC015
     FM271600 31022G30KT P6SM VCSH SCT025 OVC040
     FM280100 33014KT P6SM VCSH BKN035
     FM280800 36009KT 4SM -SHSN BKN025=

USA.gov is the U.S. government's official web portal to all federal, state and local government web resources and services.